• In Hungary
  • List of Countries
  • For 7 days
  • Water Temperature
  • Satellite Maps
  • Weather Map
  • News
  • Weather Widgets
  • user-avatar
    Login

    Hourly Weather Adelaide

    Today, 16 November, Friday

    Time Temperature Precipitation Wind Pressure Humidity
    00:00 +12°C° 0 mm 3 mps 762 mmHg 77%
    01:00 +13°C° 0 mm 2 mps 762 mmHg 78%
    02:00 +12°C° 0 mm 2 mps 762 mmHg 79%
    03:00 +12°C° 0 mm 1 mps 761 mmHg 82%
    04:00 +13°C° 0 mm 1 mps 761 mmHg 77%
    05:00 +14°C° 0 mm 1 mps 762 mmHg 73%
    06:00 +15°C° 0 mm 1 mps 762 mmHg 68%
    07:00 +17°C° 0 mm 2 mps 762 mmHg 59%
    08:00 +19°C° 0 mm 2 mps 762 mmHg 49%
    09:00 +21°C° 0 mm 3 mps 762 mmHg 41%
    10:00 +22°C° 0 mm 4 mps 762 mmHg 38%
    11:00 +23°C° 0 mm 5 mps 762 mmHg 35%
    12:00 +25°C° 0 mm 5 mps 762 mmHg 32%
    13:00 +23°C° 0 mm 6 mps 762 mmHg 33%
    14:00 +23°C° 0 mm 6 mps 762 mmHg 34%
    15:00 +23°C° 0 mm 6 mps 761 mmHg 35%
    16:00 +21°C° 0 mm 6 mps 762 mmHg 40%
    17:00 +20°C° 0 mm 6 mps 762 mmHg 46%
    18:00 +17°C° 0 mm 5 mps 762 mmHg 51%
    19:00 +16°C° 0 mm 5 mps 763 mmHg 59%
    20:00 +14°C° 0 mm 5 mps 763 mmHg 66%
    21:00 +13°C° 0 mm 4 mps 763 mmHg 74%
    22:00 +13°C° 0 mm 4 mps 763 mmHg 76%
    23:00 +12°C° 0 mm 4 mps 763 mmHg 78%

    Tomorrow, 17 November, Saturday

    Time Temperature Precipitation Wind Pressure Humidity
    00:00 +12°C° 0 mm 4 mps 763 mmHg 81%
    01:00 +11°C° 0 mm 4 mps 763 mmHg 81%
    02:00 +11°C° 0 mm 4 mps 763 mmHg 80%
    03:00 +11°C° 0 mm 4 mps 763 mmHg 80%
    04:00 +11°C° 0 mm 4 mps 763 mmHg 76%
    05:00 +12°C° 0 mm 4 mps 763 mmHg 71%
    06:00 +12°C° 0 mm 4 mps 763 mmHg 67%
    07:00 +15°C° 0 mm 4 mps 763 mmHg 55%
    08:00 +17°C° 0 mm 5 mps 763 mmHg 44%
    09:00 +20°C° 0 mm 5 mps 763 mmHg 33%
    10:00 +22°C° 0 mm 5 mps 763 mmHg 30%
    11:00 +23°C° 0 mm 5 mps 763 mmHg 26%
    12:00 +26°C° 0 mm 4 mps 762 mmHg 23%
    13:00 +26°C° 0 mm 5 mps 762 mmHg 23%
    14:00 +26°C° 0 mm 5 mps 761 mmHg 24%
    15:00 +27°C° 0 mm 6 mps 760 mmHg 24%
    16:00 +24°C° 0 mm 6 mps 761 mmHg 34%
    17:00 +22°C° 0 mm 6 mps 761 mmHg 43%
    18:00 +20°C° 0 mm 6 mps 761 mmHg 52%
    19:00 +19°C° 0 mm 6 mps 761 mmHg 59%
    20:00 +16°C° 0 mm 6 mps 761 mmHg 67%
    21:00 +15°C° 0 mm 6 mps 761 mmHg 74%
    22:00 +15°C° 0 mm 5 mps 761 mmHg 71%
    23:00 +15°C° 0 mm 5 mps 761 mmHg 68%

    Day after tomorrow, 18 November, Sunday

    Time Temperature Precipitation Wind Pressure Humidity
    00:00 +15°C° 0 mm 5 mps 760 mmHg 65%
    01:00 +15°C° 0 mm 4 mps 760 mmHg 60%
    02:00 +15°C° 0 mm 4 mps 759 mmHg 56%
    03:00 +15°C° 0 mm 4 mps 759 mmHg 51%
    04:00 +15°C° 0 mm 5 mps 759 mmHg 48%
    05:00 +16°C° 0 mm 5 mps 759 mmHg 45%
    06:00 +17°C° 0 mm 5 mps 759 mmHg 41%
    07:00 +21°C° 0 mm 5 mps 759 mmHg 35%
    08:00 +23°C° 0 mm 5 mps 759 mmHg 29%
    09:00 +27°C° 0 mm 5 mps 759 mmHg 23%
    10:00 +28°C° 0 mm 4 mps 758 mmHg 21%
    11:00 +30°C° 0 mm 4 mps 758 mmHg 18%
    12:00 +32°C° 0 mm 4 mps 757 mmHg 16%
    13:00 +33°C° 0 mm 3 mps 756 mmHg 15%
    14:00 +33°C° 0 mm 3 mps 756 mmHg 15%
    15:00 +34°C° 0 mm 2 mps 755 mmHg 15%
    16:00 +31°C° 0 mm 2 mps 755 mmHg 16%
    17:00 +30°C° 0 mm 3 mps 755 mmHg 18%
    18:00 +28°C° 0 mm 3 mps 754 mmHg 20%
    19:00 +27°C° 0 mm 3 mps 755 mmHg 21%
    20:00 +25°C° 0 mm 4 mps 755 mmHg 21%
    21:00 +23°C° 0 mm 4 mps 755 mmHg 22%
    22:00 +23°C° 0 mm 4 mps 754 mmHg 20%
    23:00 +23°C° 0 mm 4 mps 754 mmHg 19%

    19 November, Monday

    Time Temperature Precipitation Wind Pressure Humidity
    00:00 +25°C° 0 mm 5 mps 753 mmHg 18%
    01:00 +25°C° 0 mm 5 mps 753 mmHg 18%
    02:00 +23°C° 0 mm 5 mps 752 mmHg 19%
    03:00 +23°C° 0 mm 5 mps 752 mmHg 19%
    04:00 +25°C° 0 mm 5 mps 752 mmHg 19%
    05:00 +26°C° 0 mm 5 mps 752 mmHg 18%
    06:00 +27°C° 0 mm 6 mps 752 mmHg 17%
    07:00 +28°C° 0 mm 6 mps 752 mmHg 16%
    08:00 +30°C° 0 mm 6 mps 753 mmHg 15%
    09:00 +32°C° 0 mm 6 mps 753 mmHg 15%
    10:00 +30°C° 0 mm 6 mps 752 mmHg 20%
    11:00 +30°C° 0 mm 6 mps 752 mmHg 25%
    12:00 +29°C° 0 mm 7 mps 752 mmHg 30%
    13:00 +28°C° 0 mm 7 mps 752 mmHg 31%
    14:00 +28°C° 0 mm 7 mps 751 mmHg 32%
    15:00 +28°C° 0 mm 7 mps 751 mmHg 32%
    16:00 +28°C° 0 mm 6 mps 751 mmHg 33%
    17:00 +28°C° 0 mm 6 mps 751 mmHg 33%
    18:00 +28°C° 0 mm 5 mps 751 mmHg 34%
    19:00 +26°C° 0.2 mm 5 mps 751 mmHg 44%
    20:00 +23°C° 0.2 mm 5 mps 751 mmHg 54%
    21:00 +21°C° 0.2 mm 5 mps 752 mmHg 65%
    22:00 +20°C° 0.2 mm 5 mps 752 mmHg 73%
    23:00 +19°C° 0.2 mm 5 mps 752 mmHg 80%

    20 November, Tuesday

    Time Temperature Precipitation Wind Pressure Humidity
    00:00 +17°C° 0.2 mm 5 mps 752 mmHg 88%
    01:00 +17°C° 0.1 mm 5 mps 752 mmHg 87%
    02:00 +16°C° 0.1 mm 5 mps 752 mmHg 86%
    03:00 +16°C° 0.1 mm 5 mps 752 mmHg 85%
    04:00 +16°C° 0.1 mm 5 mps 752 mmHg 83%
    05:00 +15°C° 0.1 mm 5 mps 753 mmHg 80%
    06:00 +15°C° 0.1 mm 5 mps 753 mmHg 78%
    07:00 +15°C° 0 mm 5 mps 753 mmHg 74%
    08:00 +16°C° 0 mm 5 mps 753 mmHg 70%
    09:00 +16°C° 0 mm 5 mps 754 mmHg 66%
    10:00 +16°C° 0 mm 5 mps 753 mmHg 61%
    11:00 +17°C° 0 mm 5 mps 753 mmHg 56%
    12:00 +18°C° 0 mm 4 mps 752 mmHg 51%
    13:00 +19°C° 0 mm 4 mps 752 mmHg 49%
    14:00 +19°C° 0 mm 4 mps 751 mmHg 46%
    15:00 +19°C° 0 mm 4 mps 751 mmHg 43%
    16:00 +18°C° 0 mm 4 mps 751 mmHg 45%
    17:00 +18°C° 0 mm 3 mps 750 mmHg 47%
    18:00 +17°C° 0 mm 3 mps 750 mmHg 49%
    19:00 +16°C° 0 mm 3 mps 750 mmHg 55%
    20:00 +14°C° 0 mm 3 mps 750 mmHg 61%
    21:00 +13°C° 0 mm 3 mps 750 mmHg 67%
    22:00 +13°C° 0.5 mm 4 mps 750 mmHg 71%
    23:00 +12°C° 0.5 mm 5 mps 750 mmHg 75%

    21 November, Wednesday

    Time Temperature Precipitation Wind Pressure Humidity
    00:00 +11°C° 0.5 mm 6 mps 749 mmHg 79%
    01:00 +11°C° 0.5 mm 6 mps 749 mmHg 77%
    02:00 +10°C° 0.5 mm 6 mps 749 mmHg 75%
    03:00 +10°C° 0.5 mm 7 mps 748 mmHg 73%
    04:00 +10°C° 0.2 mm 7 mps 749 mmHg 71%
    05:00 +10°C° 0.2 mm 7 mps 749 mmHg 69%
    06:00 +10°C° 0.2 mm 7 mps 749 mmHg 67%
    07:00 +11°C° 0.3 mm 6 mps 749 mmHg 61%
    08:00 +13°C° 0.3 mm 6 mps 749 mmHg 55%
    09:00 +14°C° 0.3 mm 6 mps 749 mmHg 49%
    10:00 +14°C° 0.3 mm 6 mps 749 mmHg 47%
    11:00 +15°C° 0.3 mm 6 mps 749 mmHg 45%
    12:00 +15°C° 0.3 mm 6 mps 748 mmHg 43%
    13:00 +15°C° 0.5 mm 6 mps 748 mmHg 45%
    14:00 +14°C° 0.5 mm 6 mps 749 mmHg 46%
    15:00 +14°C° 0.5 mm 7 mps 749 mmHg 48%
    16:00 +12°C° 0.5 mm 7 mps 749 mmHg 53%
    17:00 +11°C° 0.5 mm 7 mps 750 mmHg 57%
    18:00 +11°C° 0.5 mm 8 mps 751 mmHg 62%
    19:00 +10°C° 0.1 mm 8 mps 752 mmHg 65%
    20:00 +10°C° 0.1 mm 8 mps 752 mmHg 69%
    21:00 +9°C° 0.1 mm 7 mps 753 mmHg 72%
    22:00 +10°C° 0.2 mm 8 mps 753 mmHg 73%
    23:00 +10°C° 0.2 mm 8 mps 753 mmHg 73%
    Show more